カタログに戻る

STARLINK-30758

運用中通信VLEO
NORAD 58133·PAYLOAD·🇺🇸 United States

打ち上げ Oct 22, 2023 から Cape Canaveral Space Force Station

Loading…

次のパス (今後24時間)

TLE

最新Source: CelesTrak SupGP

元期: Sep 14, 2026, 22:00 UTC

1 58133C 23162R   26257.91715278 -.00006711  00000+0 -24316-3 0  2578
2 58133  42.9988 140.5766 0001402 271.2909 147.0971 15.27570503    13

AllMySatでSTARLINK-30758をリアルタイム追跡

Download on the App Store